Погода Окунев Нос

Погода Окунев Нос : погода сейчас, прогноз погоды и архив. Всё, что Вы хотите узнать о погоде Окунев Нос!

Поиск расширенной информации на нашем сайте:

Другие новости

Новости СМИ2

Главная страница сайта

Новости сайта

03.07.2017

Напоминаем, что на нашем специализированном сайте Метеоцентр.Азия вы можете получить высокодетализированные автоматические прогнозы погоды по пунктам России, СНГ и мира в авиационном формате (включающие направление и скорость ветра, видимость, явления погоды, количество и форму облачности, нижнюю и верхнюю границу облачности).

Рекомендуем: Противокоррозионная полимерная ингибированная пленка.

Погода Окунев Нос - сегодня

Время (UTC), дата Ветер
(°,м/с) 
Видим.   Явления Облачность Т
(°С)
Тd
(°С)
f(%) Тe
(°С)
Pmin
(гПа)
dP
(гПа)
Po
(мм)
O2
(г/м3)
Тmin Tmax R s Состояние
почвы
09 12.12.17 150 (ЮВ) 20000 м    10/10 450 м 
[Sc]
-10.2 -11.7 89 -13  1022.5  0.4  765  321           
12 12.12.17 180 (Ю) 50000 м    10/10 450 м 
[Sc]
-9.5 -10.7 91 -14  1022.3  -0.2  765  320           
15 12.12.17 180 (Ю) 50000 м    10/10 600 м 
[Sc]
-9.5 -10.8 90 -13  1022.3  -0.1  764  320    -7.5       
18 12.12.17 170 (Ю) 50000 м    10/10 1020 м 
[Sc]
-10.7 -12.3 88 -15  1021.9  -0.3  764  322           
00 13.12.17 160 (Ю) 50000 м    10/10 960 м 
[Sc]
-9.9 -11.3 89 -14  1020.7  -0.9  763  320           
03 13.12.17 150 (ЮВ) 50000 м    10/10 930 м 
[Sc]
-8.4 -10 88 -12  1018.3  -2.4  762  318  -10.8      29  равномерный
сухой снег
100% 
06 13.12.17 150 (ЮВ) 7-11{12}  20000 м  позёмок  10/10 800 м 
[Sc]
-7 -8.5 89 -12  1014.6  -3.7  759  315           
09 13.12.17 170 (Ю) 8-14{15}  20000 м  позёмок  10/10 480 м 
[Sc]
-5.3 -6.8 89 -11  1011.8  -2.8  757  312           
12 13.12.17 160 (Ю) 8-14{15}  50000 м  позёмок{снег}  10/10 500 м 
[Sc]
-5.1 -6.8 88 -10  1007.8  -3.9  754  310           
15 13.12.17 160 (Ю) 8-14{15}  17000 м  слаб. снег  10/10 630 м 
[Sc]
-5.4 -6.7 91 -11  1004.6  -3.2  751  310    -4.8  0.0     
18 13.12.17 170 (Ю) 8-15{15}  50000 м  позёмок{снег}  10/10 750 м 
[Sc]
-3.9 -6 85 -9  1001.1  -3.5  749  307           
00 14.12.17 170 (Ю) 7-13{14}  50000 м  позёмок{снег}  10/10 600 м 
[Sc]
-1.7 -3.3 89 -6  998.4  -0.8  747  303           
03 14.12.17 190 (Ю) 5-11{13}  50000 м  позёмок  10/0 средняя 
[Ac As]
-0.8 -1.8 93 -4  999.7  1.4  748  302  -5.4    0.3  22  равномерный
сухой снег
100% 
06 14.12.17 200 (Ю) 5{13}  20000 м  {снег}  9/8 1320 м средняя 
[Sc|Ac trans]
-0.8 -3.8 80 -4  1002.4  2.7  750  303           
09 14.12.17 190 (Ю) 5-11{15}  20000 м  позёмок  9/9 1260 м средняя 
[Sc|Ac trans]
-0.8 -4.5 76 -4  1004.5  751  304           
12 14.12.17 190 (Ю) 6-10{13}  50000 м  позёмок  9/9 900 м средняя 
[Sc|Ac trans]
-1.2 -4.3 79 -5  1006.4  1.9  753  305           
15 14.12.17 180 (Ю) 5-10{12}  50000 м  позёмок  9/9 1500 м 
[Sc]
-1.5 -3.9 84 -5  1007.8  1.4  754  306    -0.7  0.0     
18 14.12.17 190 (Ю) 6-10{11}  50000 м  позёмок  10/10 660 м 
[Sc]
-2.2 -4.3 85 -6  1009.8  755  307           
00 15.12.17 200 (Ю) 5{11}  50000 м    10/10 420 м 
[Sc]
-3.7 -4.8 92 -7  1011.7  0.5  757  310           
03 15.12.17 200 (Ю) 50000 м    10/10 540 м 
[Sc]
-3.9 -5.6 88 -7  1012  0.4  757  310  -3.9      21  равномерный
сухой снег
100% 
06 15.12.17 190 (Ю) 20000 м    10/10 480 м 
[Sc]
-4.5 -5.9 90 -7  1013  758  311  -4.5         
09 15.12.17 200 (Ю) 20000 м    10/10 600 м 
[Sc]
-4.9 -6.4 89 -8  1013.4  0.4  758  312           
12 15.12.17 200 (Ю) 50000 м    10/10 700 м 
[Sc]
-4.3 -6.1 87 -6  1014.2  0.8  759  311           
15 15.12.17 140 (ЮВ) 50000 м    10/10 480 м 
[Sc]
-4 -5.1 92 -4  1013.9  0.3  758  311    -3.9       
18 15.12.17 120 (ЮВ) 50000 м    10/10 450 м 
[Sc]
-2.9 -3.6 95 -4  1013.4  -0.5  758  309           
Время (UTC), дата Ветер
(°,м/с) 
Видим.   Явления Облачность Т
(°С)
Тd
(°С)
f(%) Тe
(°С)
Pmin
(гПа)
dP
(гПа)
Po
(мм)
O2
(г/м3)
Тmin Tmax R s Состояние
почвы

Для получения пояснительной информации подведите курсор к названию столбца.

ПОГОДА Окунев Нос - архив

Всё, что Вы хотите узнать о погоде Окунев Нос - удобно и подробно!

Выберите нужную дату (начиная с 1 января 2015* года) и нажмите кнопку "Найти".
Будут отображены архивные сводки погоды по пункту Окунев Нос, начиная с указанной даты.


Отображать данные в формате CSV (для использования в таблицах Excel)


Внимание! Наш архив погоды предназначен исключительно для личного некоммерческого использования в познавательных целях. Если Вам необходимы официальные справки о состоянии погоды (для производственных, юридических, коммерческих и т.п. целей), обращайтесь в органы Росгидромета.

*Примечание: данная дата относится к архиву по метеостанциям СССР (Россия, СНГ, Балтия).
Архив по метеостанциям Зарубежной Европы и Азии (кроме Китая) хранится 10 дней, по другим регионам земного шара (Китай, Африка, Америка, Австралия, Океания) - 1 день.

Окунев Нос - район местоположения метеостанции


Название, широта, долгота, высота метеостанции:
Окунев Нос 66.2°ш. 52.6°д. 20 м над ур. моря [Российская Федерация]

Дополнительная информация

В oтличие oт бoльшинства пoгoдных сайтoв мы публикуем пoдрoбную метеoинфoрмацию в детальнoм прoфессиoнальнoм фoрмате.

Характеристики температуры и влажнoсти вoздуха измеряются на высoте 2 м в тени вдали oт зданий и деревьев.
Скoрoсть ветра измеряется на высoте 10 м (на урoвне рoста челoвека скoрoсть ветра ниже в 1.5-2 раза). Если метеoстанция нахoдится в гoрoде или в лесу, тo скoрoсть ветра занижена на 2-4 м/с пo сравнению с oткрытым местoм. Скoрoсть ветра над акватoриями крупных рек и oзёр, а также на вершинах хoлмoв на 2-5 м/с выше, чем в oбычных услoвиях.
Атмoсфернoе давление в разных тoчках местнoсти мoжет значительнo oтличаться oт давления на метеoстанции, в зависимoсти oт услoвий рельефа (при пoдъёме на 10 м давление пoнижается примернo на 1 мм рт.ст.).